DateTimeUTC,F1_A11,F1_S11,BsB_S11,BsG_S11,BsR_S11,BbsB_S11,BbsG_S11,BbsR_S11,BaB_A11,BaG_A11,BaR_A11,Tu_S11,T_S11,Uu_S11,U_S11,P_S11,T1_A11
2021-12-08T08:00:00Z,00000200,21000000,,,,,,,-000.09,-000.10,0000.46,21.5,28.1,,00.0,0636.2,31.7
2021-12-08T08:01:00Z,00000200,21000000,,,,,,,-000.21,0000.36,-000.46,21.5,28.2,,00.0,0636.2,31.7
2021-12-08T08:02:00Z,00000200,21000000,,,,,,,-000.00,-000.42,0000.10,21.5,28.2,,00.0,0636.2,31.7
2021-12-08T08:03:00Z,00000200,61000000,,,,,,,-000.20,0000.23,-000.29,21.6,28.2,,00.0,0636.2,31.7
2021-12-08T08:04:00Z,00000200,41000000,-000.02,0000.05,0000.17,0000.19,0000.00,-000.13,-000.01,-000.05,0000.37,21.8,28.1,,00.0,0637.0,31.7
2021-12-08T08:05:00Z,00000200,01000000,-000.47,0000.21,-000.02,0000.25,-000.03,0000.27,0000.19,0000.02,-000.18,21.9,28.1,,00.0,0637.1,31.7
2021-12-08T08:06:00Z,00000200,01000000,-000.44,-000.09,-000.19,0000.21,0000.02,-000.16,-000.09,-000.01,0000.36,21.9,28.1,,00.0,0637.1,31.7
2021-12-08T08:07:00Z,00000200,01000000,-000.54,0000.12,-000.37,0000.09,0000.12,-000.17,0000.33,-000.11,-000.35,22.0,28.1,,00.0,0637.1,31.7
2021-12-08T08:08:00Z,00000200,01000000,-000.37,0000.32,0000.12,0000.41,0000.16,-000.14,-000.12,0000.13,0000.05,22.0,28.1,,00.0,0637.1,31.8
2021-12-08T08:09:00Z,00000200,01000000,-000.61,-000.27,0000.07,-000.15,-000.22,0000.35,-000.18,-000.28,0000.16,22.0,28.1,,00.0,0637.0,31.8
2021-12-08T08:10:00Z,00000200,01000000,0000.76,-000.16,0000.03,-000.06,0000.17,0000.02,0000.21,0000.23,-000.16,22.0,28.2,,00.0,0637.1,31.8
2021-12-08T08:11:00Z,00000200,01000000,-000.98,-000.12,-000.02,0000.12,0000.03,0000.02,0000.04,-000.21,0000.27,22.1,28.2,,00.0,0637.1,31.8
2021-12-08T08:12:00Z,00000200,01000000,-000.42,0000.19,0000.02,0000.20,-000.35,-000.19,0000.04,0000.44,0000.09,22.1,28.2,,00.0,0637.0,31.8
2021-12-08T08:13:00Z,00000200,01000000,-000.19,0000.03,-000.01,0000.14,-000.02,0000.12,-000.09,-000.23,-000.06,22.1,28.2,,00.0,0637.0,31.8
2021-12-08T08:14:00Z,00000200,01000000,0000.20,0000.45,-000.29,0000.18,-000.04,-000.10,-000.08,0000.19,-000.01,22.1,28.2,,00.0,0637.1,31.8
2021-12-08T08:15:00Z,00000200,01000000,-000.71,-000.22,0000.26,0000.35,0000.02,0000.18,0000.22,-000.06,-000.23,22.2,28.2,,00.0,0637.1,31.8
2021-12-08T08:16:00Z,00000200,01010000,-000.29,-000.04,-000.24,0000.25,0000.18,-000.16,-000.12,0000.30,0000.02,22.2,28.3,,00.0,0637.1,31.9
2021-12-08T08:17:00Z,00000200,01000000,-000.31,0000.11,-000.00,0000.30,0000.12,0000.02,0000.04,-000.56,0000.19,22.2,28.3,,00.0,0637.1,31.9
2021-12-08T08:18:00Z,00000200,01000000,-000.22,0000.05,-000.06,0000.11,0000.09,0000.25,-000.19,0000.46,-000.07,22.3,28.3,,00.0,0637.1,31.9
2021-12-08T08:19:00Z,00000200,01000000,-000.14,-000.09,-000.30,-000.24,-000.25,0000.04,0000.17,-000.10,0000.32,22.3,28.3,,00.0,0637.1,31.9
2021-12-08T08:20:00Z,00000200,01000000,0000.04,0000.08,-000.26,0000.25,-000.09,-000.27,0000.31,0000.07,-000.65,22.2,28.3,,00.0,0637.1,31.9
2021-12-08T08:21:00Z,00000200,01000000,0000.30,0000.09,-000.18,0000.12,-000.07,-000.21,-000.24,-000.45,0000.34,22.1,28.3,,00.0,0637.1,31.9
2021-12-08T08:22:00Z,00000200,01000000,-000.85,-000.18,-000.41,-000.14,-000.04,0000.10,-000.07,0000.07,0000.11,22.0,28.3,,00.0,0637.0,31.9
2021-12-08T08:23:00Z,00000200,01000000,-000.87,-000.33,-000.01,0000.52,-000.28,0000.01,-000.11,-000.28,-000.37,22.0,28.2,,00.0,0637.0,31.9
2021-12-08T08:24:00Z,00000200,01000000,-000.81,0000.16,0000.06,-000.42,-000.06,-000.12,0000.14,0000.47,0000.37,22.0,28.2,,00.0,0637.0,31.9
2021-12-08T08:25:00Z,00000200,01000000,-000.35,-000.21,-000.25,0000.77,-000.02,0000.07,-000.07,0000.15,-000.04,22.0,28.2,,00.0,0637.0,31.9
2021-12-08T08:26:00Z,00000200,01000000,0000.25,-000.02,0000.38,-000.12,-000.06,0000.49,0000.26,0000.27,0000.15,22.0,28.3,,00.0,0637.1,31.9
2021-12-08T08:27:00Z,00000200,01000000,0000.04,0000.06,0000.20,0000.50,0000.17,0000.19,-000.02,0000.04,0000.25,22.0,28.3,,00.0,0637.0,31.9
2021-12-08T08:28:00Z,00000200,01000000,-000.79,-000.02,0000.35,-000.59,-000.22,0000.01,0000.28,-000.02,-000.40,22.0,28.2,,00.0,0637.0,31.9
2021-12-08T08:29:00Z,00000200,01000000,-000.44,0000.20,-000.05,-000.11,-000.18,0000.21,0000.13,0000.09,0000.18,21.9,28.2,,00.0,0637.0,31.9
2021-12-08T08:30:00Z,00000200,01000000,0000.08,0000.23,-000.10,0000.17,-000.23,0000.27,-000.33,-000.12,0000.25,21.8,28.2,,00.0,0637.0,31.8
2021-12-08T08:31:00Z,00000200,01000000,-000.66,-000.20,0000.19,0000.47,-000.08,0000.04,0000.24,0000.13,-000.05,21.8,28.1,,00.0,0637.0,31.8
2021-12-08T08:32:00Z,00000200,01000000,0000.35,-000.04,0000.07,0000.42,-000.07,0000.07,0000.39,0000.07,0000.01,21.7,28.1,,00.0,0637.0,31.8
2021-12-08T08:33:00Z,00000200,01000000,-000.46,-000.08,0000.28,0000.26,-000.08,0000.26,0000.28,0000.31,-000.00,21.6,28.0,,00.0,0637.0,31.7
2021-12-08T08:34:00Z,00000200,01000000,0000.15,0000.39,0000.41,0000.83,0000.07,0000.24,-000.37,-000.23,0000.17,21.5,28.0,,00.0,0637.0,31.7
2021-12-08T08:35:00Z,00000200,01000000,-000.96,0000.02,0000.10,-000.14,-000.05,-000.14,0000.00,0000.19,-000.24,21.4,28.0,,00.0,0637.1,31.7
2021-12-08T08:36:00Z,00000200,01000000,-000.70,0000.18,-000.29,0000.38,0000.04,-000.22,0000.24,-000.17,-000.03,21.3,27.9,,00.0,0637.1,31.6
2021-12-08T08:37:00Z,00000200,01000000,-000.38,0000.41,-000.24,-000.26,0000.05,-000.23,-000.24,-000.33,-000.21,21.3,27.9,,00.0,0637.1,31.6
2021-12-08T08:38:00Z,00000200,01000000,0000.48,-000.09,0000.12,0000.07,-000.12,-000.31,0000.10,0000.18,0000.16,21.2,27.8,,00.0,0637.0,31.6
2021-12-08T08:39:00Z,00000200,01000000,0000.02,0000.21,0000.09,0000.36,0000.12,0000.14,0000.22,0000.36,0000.41,21.2,27.8,,00.0,0637.0,31.6
2021-12-08T08:40:00Z,00000200,01000000,0000.31,-000.07,-000.07,-000.18,-000.09,-000.08,-000.08,-000.29,-000.26,21.3,27.8,,00.0,0637.1,31.6
2021-12-08T08:41:00Z,00000200,01000000,-000.14,-000.27,-000.32,0000.12,0000.27,0000.01,0000.52,0000.68,0000.14,21.3,27.8,,00.0,0637.2,31.6
2021-12-08T08:42:00Z,00000200,01000000,-000.44,-000.04,-000.16,0000.09,-000.05,0000.01,-000.29,-000.04,0000.16,21.4,27.8,,00.0,0637.2,31.6
2021-12-08T08:43:00Z,00000200,01000000,-000.61,0000.01,0000.24,0000.00,-000.19,0000.67,0000.36,-000.29,0000.26,21.4,27.8,,00.0,0637.2,31.6
2021-12-08T08:44:00Z,00000200,01000000,-000.65,-000.05,-000.46,0000.24,-000.16,-000.06,-000.37,0000.33,-000.00,21.5,27.8,,00.0,0637.2,31.6
2021-12-08T08:45:00Z,00000200,01000000,0000.11,0000.19,0000.05,0000.43,0000.26,0000.32,0000.19,0000.08,-000.05,21.5,27.8,,00.0,0637.2,31.6
2021-12-08T08:46:00Z,00000200,01000000,-000.54,0000.25,0000.10,0000.05,-000.06,0000.25,0000.22,-000.16,-000.08,21.5,27.8,,00.0,0637.2,31.6
2021-12-08T08:47:00Z,00000200,01000000,-000.77,0000.23,-000.24,0000.40,-000.15,0000.13,-000.56,-000.04,-000.14,21.5,27.9,,00.0,0637.2,31.6
2021-12-08T08:48:00Z,00000200,01000000,-000.21,0000.38,0000.04,0000.67,-000.09,-000.40,0000.39,0000.15,0000.00,21.5,27.9,,00.0,0637.2,31.6
2021-12-08T08:49:00Z,00000200,01000000,-000.88,-000.20,0000.03,-000.59,-000.13,0000.09,0000.04,0000.25,0000.55,21.4,27.9,,00.0,0637.1,31.6
2021-12-08T08:50:00Z,00000200,01000000,0000.03,0000.16,-000.50,0000.40,0000.15,-000.06,0000.29,0000.01,-000.35,21.3,27.8,,00.0,0637.1,31.6
2021-12-08T08:51:00Z,00000200,01000000,-000.51,0000.07,-000.30,0000.07,0000.05,0000.22,-000.14,-000.04,0000.01,21.3,27.8,,00.0,0637.0,31.5
2021-12-08T08:52:00Z,00000200,01000000,-000.69,0000.13,-000.32,0000.12,-000.01,0000.09,0000.08,-000.28,0000.10,21.2,27.7,,00.0,0637.1,31.5
2021-12-08T08:53:00Z,00000200,01000000,0000.03,0000.22,-000.10,-000.72,-000.32,0000.09,-000.05,0000.02,-000.13,21.2,27.7,,00.0,0637.0,31.5
2021-12-08T08:54:00Z,00000200,01000000,-000.36,-000.39,-000.07,0000.19,-000.31,0000.34,0000.12,0000.58,0000.32,21.2,27.7,,00.0,0637.0,31.5
2021-12-08T08:55:00Z,00000200,01000000,-000.10,-000.01,0000.08,0000.60,0000.05,-000.25,0000.06,-000.16,0000.22,21.2,27.7,,00.0,0636.9,31.5
2021-12-08T08:56:00Z,00000200,01000000,-000.60,0000.22,0000.10,0000.75,0000.16,0000.31,0000.34,0000.17,-000.21,21.3,27.7,,00.0,0636.9,31.5
2021-12-08T08:57:00Z,00000200,41000000,,,,,,,-000.03,-000.11,0000.13,21.3,27.8,,00.0,0636.8,31.5
2021-12-08T08:58:00Z,00000200,61000000,,,,,,,-000.27,-000.20,0000.10,21.1,27.8,,00.0,0636.1,31.5
2021-12-08T08:59:00Z,00000200,21000000,,,,,,,0000.21,0000.31,-000.32,21.1,27.9,,00.0,0636.1,31.5
